Find OneWeb SL0189

NORAD ID: 48217 Int'l Des: 2021-031 Owner: ONEWEBN Country: UK Constellation: oneweb operational
LEOCIRCULARPOLARONEWEB_TYPE

リアルタイム位置

3D地球を読み込み中...

OneWeb SL0189について

説明を読み込み中...

次回通過

Passes for default location (London). Set your location on the main map for personalized predictions.

高度履歴

Loading altitude history...

軌道要素

1 48217U 21031H 26125.00435088 .00000227 00000-0 57644-3 0 9993
2 48217 87.8928 298.3137 0001441 88.0449 272.0846 13.14503048242558
Epoch: May 5, 2026 • Age: 14 hours

現在のステータス

高度 1219.1 km
速度 7.24 km/s
衛星直下点 -33.95°S, 144.91°W
打ち上げ日 Apr 25, 2021
運用期間 5 years
タイプ internet

技術仕様

分類 Payload
質量 148.00 kg
乾燥質量 140.00 kg
総質量 148.00 kg
長さ 1.30 m
直径 1.00 m
スパン 5.00 m
形状 Trapezoid+2 pan
製造者 ONEWUS
バスタイプ ARROW
フェーズステータス In Orbit
所有者/国 ONEWEBN/UK

Most Searched